Location: ?????????
(54.7630°N, 39.4991°E)
Time: 20:51:30
(UTC+00:00)

Helios 1B rocket - Pass Details

Date: 14 April 2026
Orbit: 462 x 468 km, 98.2° (Epoch: 16 May)

Event Time Altitude Azimuth Distance (km) Brightness Sun altitude
Exits shadow 19:53:04 64° 316° (NW) 530 2.3 -22.9°
Drops below altitude 10° 19:56:10 10° 342° (NNW) 1,649 5.9 -23.1°
Sets 19:58:14 0° 344° (NNW) 2,534 7.2 -23.2°
